[[{"header":{"parameterUnit":"m.s-1","parameterCategory":1,"la1":30.2991,"la2":30.254,"lo1":-89.0895,"lo2":-89.0444,"dy":0.0017,"dx":0.0017,"nx":28,"ny":28,"refTime":"2025-03-28T21:00:00:Z","depth":0,"parameterNumber":2,"parameterNumberName":"U-component_of_WINDS"},"data":[0,0,0,0,0,0,0,0,0,0,0,0,0,0,0,0,0,0,0,0,0,0,0,0,0,0,0,0,0,0,0,0,0,0,0,0,0,0,0,0,0,0,0,0,0,0,0,0,0,0,0,0,0,0,0,0,0,0,-6.1696,-6.1697,0,-6.1774,-6.1775,-6.1776,-6.1735,-6.1733,-6.1731,-6.1729,-6.1803,-6.1807,-6.1811,0,0,0,0,0,0,0,0,0,0,0,0,0,-6.1507,-6.1511,-6.1696,-6.1697,-6.1698,-6.1774,-6.1775,-6.1776,-6.1735,-6.1733,-6.173,-6.1728,-6.1802,-6.1806,-6.1811,0,0,0,0,0,0,0,0,0,0,0,0,0,-6.1587,-6.1512,-6.1696,-6.1687,-6.1687,-6.1774,-6.1775,-6.1777,-6.1736,-6.1733,-6.173,-6.1727,-6.18,-6.1806,-6.1812,-6.191,0,0,-6.183,-6.1832,0,0,0,0,0,0,0,0,-6.1583,-6.1594,-6.1687,-6.1688,-6.1688,-6.1742,-6.1736,-6.1821,-6.1737,-6.1717,-6.1729,-6.1725,-6.1785,-6.1792,-6.1813,-6.1914,-6.1917,-6.183,-6.1834,-6.1836,-6.1838,0,0,0,0,0,0,0,-6.1577,-6.1591,-6.1727,-6.1689,-6.1689,-6.1678,-6.1686,-6.1752,-6.1767,-6.1719,-6.1716,-6.1726,-6.1784,-6.1808,-6.1814,-6.1918,-6.183,-6.1835,-6.1839,-6.1841,-6.2105,-6.2108,0,0,0,0,0,0,-6.1573,-6.1586,-6.1724,-6.1729,-6.1627,-6.1684,-6.1693,-6.1728,-6.1766,-6.177,-6.1729,-6.1724,-6.1799,-6.1808,-6.1817,-6.1935,-6.1836,-6.1842,-6.1845,-6.2101,-6.2106,-6.2109,0,0,0,0,0,0,-6.1569,-6.1586,-6.1721,-6.1657,-6.1674,-6.169,-6.173,-6.1731,-6.1754,-6.1774,-6.1776,-6.175,-6.1797,-6.1809,-6.1888,-6.1937,-6.1844,-6.185,-6.2097,-6.2103,-6.2107,-6.2171,0,0,0,0,0,0,-6.1564,-6.1585,-6.1623,-6.1658,-6.1677,-6.1792,-6.1733,-6.1735,-6.1765,-6.1759,-6.1794,-6.1797,-6.1795,-6.188,-6.1894,-6.1943,-6.1854,-6.2093,-6.21,-6.2106,-6.2165,-6.2178,-6.219,0,0,0,0,0,-6.1557,-6.1636,-6.1625,-6.1642,-6.1726,-6.1795,-6.1806,-6.1804,-6.1769,-6.1807,-6.1821,-6.1796,-6.193,-6.1888,-6.1904,-6.1956,-6.209,-6.2098,-6.2105,-6.2159,-6.2176,-6.2189,0,0,0,0,0,0,-6.1602,-6.164,-6.1628,-6.1721,-6.1756,-6.1788,-6.1835,-6.1821,-6.1864,-6.1856,-6.1851,-6.1859,-6.1941,-6.1957,-6.1909,-6.2054,-6.2004,-6.2016,-6.204,-6.2056,-6.2068,-6.2061,-6.1859,0,0,0,0,0,-6.1624,-6.1679,-6.1708,-6.1788,-6.1806,-6.1818,-6.1848,-6.1845,-6.1879,-6.1892,-6.1911,-6.1944,-6.1994,-6.2026,-6.2073,-6.2169,-6.2175,-6.2212,-6.2224,-6.2234,-6.2243,-6.2295,-6.2312,-6.2135,-6.2135,-6.2135,0,0,-6.1667,-6.1695,-6.1729,-6.1798,-6.1823,-6.1879,-6.183,-6.1891,-6.1931,-6.1901,-6.1977,-6.1993,-6.2029,-6.2117,-6.2157,-6.2133,-6.2294,-6.2245,-6.2252,-6.2256,-6.2305,-6.2322,-6.2336,-6.214,-6.2139,-6.2139,0,0,-6.1774,-6.1802,-6.1871,-6.1899,-6.194,-6.1949,-6.1966,-6.2002,-6.2011,-6.2089,-6.2067,-6.2116,-6.2201,-6.2228,-6.2253,-6.2375,-6.2354,-6.2391,-6.2453,-6.2504,-6.2518,-6.253,-6.2572,-6.2588,-6.24,-6.24,-6.2401,0,-6.1822,-6.1906,-6.1907,-6.1971,-6.2001,-6.198,-6.2049,-6.2076,-6.213,-6.2151,-6.2124,-6.2232,-6.2255,-6.2349,-6.238,-6.2401,-6.2419,-6.2385,-6.2516,-6.2529,-6.254,-6.258,-6.2596,-6.2405,-6.2404,-6.2404,-6.2403,0,-6.1963,-6.2022,-6.2073,-6.2128,-6.2165,-6.2231,-6.2241,-6.2278,-6.2272,-6.2283,-6.2363,-6.2391,-6.2443,-6.2466,-6.2459,-6.256,-6.2544,-6.2517,-6.2466,-6.2561,-6.2598,-6.2614,-6.241,-6.2409,-6.2408,-6.2407,0,0,-6.2095,-6.2154,-6.2173,-6.2198,-6.2244,-6.2289,-6.2355,-6.2409,-6.244,-6.2479,-6.2532,-6.2608,-6.2584,-6.2613,-6.261,-6.2655,-6.2749,-6.2623,-6.2624,-6.2644,-6.2861,-6.2878,-6.2896,-6.2738,-6.2741,-6.2743,-6.2857,0,-6.2204,-6.232,-6.2325,-6.243,-6.2485,-6.2468,-6.2525,-6.2559,-6.2572,-6.2619,-6.2633,-6.2686,-6.2652,-6.2669,-6.2714,-6.2729,-6.2792,-6.2721,-6.2785,-6.2787,-6.2774,-6.2916,-6.2935,-6.3041,-6.2872,-6.2874,-6.2876,0,-6.2345,-6.2392,-6.2503,-6.2544,-6.2567,-6.2618,-6.2668,-6.2715,-6.2753,-6.276,-6.2794,-6.2786,-6.2852,-6.2803,-6.2894,-6.2845,-6.2872,-6.2884,-6.2888,-6.2891,-6.2835,-6.2921,-6.3075,-6.309,-6.29,-6.2898,-6.2896,0,-6.2429,-6.252,-6.2598,-6.2621,-6.267,-6.2707,-6.2729,-6.2765,-6.2797,-6.2842,-6.2863,-6.2914,-6.2941,-6.298,-6.2986,-6.295,-6.3077,-6.3028,-6.3082,-6.3082,-6.3106,-6.3104,-6.3264,-6.3129,-6.3129,-6.3128,-6.3128,0,-6.2548,-6.2616,-6.2637,-6.2684,-6.2761,-6.2767,-6.2841,-6.2861,-6.2894,-6.2944,-6.2933,-6.298,-6.2986,-6.3035,-6.304,-6.3114,-6.3127,-6.3133,-6.3132,-6.3132,-6.3131,-6.3147,-6.3139,-6.3133,-6.3132,-6.3131,-6.313,0,-6.2652,-6.2669,-6.2753,-6.2795,-6.2807,-6.2862,-6.2896,-6.2942,-6.2956,-6.3021,-6.3036,-6.3057,-6.3114,-6.3125,-6.3192,-6.3196,-6.3283,-6.3277,-6.3271,-6.3269,-6.3322,-6.3316,-6.3495,-6.3519,-6.3371,-6.3372,-6.3374,0,-6.2725,-6.2778,-6.2827,-6.2861,-6.2886,-6.2941,-6.2976,-6.2984,-6.302,-6.307,-6.311,-6.3167,-6.3212,-6.3305,-6.3325,-6.3377,-6.337,-6.343,-6.3377,-6.3376,-6.3368,-6.3364,-6.3369,-6.3438,-6.344,-6.3441,-6.3442,0,-6.2853,-6.286,-6.2911,-6.2966,-6.3009,-6.3052,-6.3092,-6.3121,-6.3135,-6.3176,-6.3236,-6.3272,-6.3343,-6.3398,-6.3451,-6.3472,-6.3459,-6.346,-6.3474,-6.3472,-6.3466,-6.3469,-6.3295,-6.3454,-6.3453,-6.3452,-6.3451,-6.3451,-6.2943,-6.2989,-6.3031,-6.3089,-6.3122,-6.3161,-6.3207,-6.3228,-6.3279,-6.3338,-6.3341,-6.3406,-6.3445,-6.3514,-6.354,-6.359,-6.3571,-6.3593,-6.3598,-6.3602,-6.3607,-6.3461,-6.36,-6.3599,-6.3599,-6.3599,-6.3599,0,-6.3068,-6.3096,-6.3149,-6.3209,-6.3254,-6.3243,-6.3288,-6.3326,-6.3385,-6.3423,-6.347,-6.3539,-6.3595,-6.3622,-6.3676,-6.3712,-6.3707,-6.3725,-6.3721,-6.3726,-6.3621,-6.3602,-6.3728,-6.3728,-6.3728,-6.3728,-6.3728,-6.3728,-6.3139,-6.3217,-6.3229,-6.3323,-6.335,-6.3416,-6.3443,-6.3479,-6.351,-6.3589,-6.3636,-6.3654,-6.3688,-6.3746,-6.3796,-6.3803,-6.3822,-6.3843,-6.3846,-6.3747,-6.3734,-6.3721,-6.3703,-6.3848,-6.3848,-6.3947,-6.3948,-6.3948]},{"header":{"parameterUnit":"m.s-1","parameterCategory":1,"la1":30.2991,"la2":30.254,"lo1":-89.0895,"lo2":-89.0444,"dy":0.0017,"dx":0.0017,"nx":28,"ny":28,"refTime":"2025-03-28T21:00:00:Z","depth":0,"parameterNumber":3,"parameterNumberName":"V-component_of_WINDS"},"data":[0,0,0,0,0,0,0,0,0,0,0,0,0,0,0,0,0,0,0,0,0,0,0,0,0,0,0,0,0,0,0,0,0,0,0,0,0,0,0,0,0,0,0,0,0,0,0,0,0,0,0,0,0,0,0,0,0,0,4.8047,4.8049,0,4.8221,4.8223,4.8225,4.8244,4.8242,4.824,4.8239,4.8417,4.8423,4.8429,0,0,0,0,0,0,0,0,0,0,0,0,0,4.7731,4.7737,4.8046,4.8049,4.8051,4.822,4.8223,4.8225,4.8244,4.8242,4.824,4.8238,4.8415,4.8422,4.843,0,0,0,0,0,0,0,0,0,0,0,0,0,4.7883,4.7739,4.8046,4.8081,4.8086,4.822,4.8223,4.8226,4.8245,4.8242,4.8239,4.8237,4.8412,4.8421,4.8431,4.8543,0,0,4.846,4.8464,0,0,0,0,0,0,0,0,4.7874,4.7894,4.8074,4.8079,4.8084,4.8208,4.8177,4.8332,4.8245,4.8184,4.8239,4.8236,4.8349,4.8364,4.8402,4.8551,4.8559,4.8461,4.8467,4.8471,4.8474,0,0,0,0,0,0,0,4.7864,4.7887,4.8115,4.8076,4.8083,4.8088,4.8107,4.8206,4.8279,4.8189,4.8191,4.8212,4.8352,4.8393,4.8407,4.8561,4.8461,4.8469,4.8475,4.8479,4.8812,4.8815,0,0,0,0,0,0,4.7847,4.7878,4.811,4.8121,4.7971,4.8096,4.8117,4.8171,4.8278,4.8292,4.8214,4.8212,4.8378,4.8396,4.8413,4.8553,4.8471,4.848,4.8485,4.8809,4.8813,4.8816,0,0,0,0,0,0,4.784,4.7867,4.8103,4.8,4.803,4.8104,4.8165,4.8176,4.8217,4.8297,4.831,4.8242,4.8377,4.84,4.8511,4.8559,4.8484,4.8493,4.8805,4.881,4.8814,4.8832,0,0,0,0,0,0,4.7831,4.7865,4.7908,4.8001,4.8036,4.8198,4.8168,4.8181,4.8234,4.8233,4.8327,4.834,4.8376,4.8496,4.852,4.8571,4.85,4.8801,4.8808,4.8813,4.8827,4.8836,4.8844,0,0,0,0,0,4.7819,4.7905,4.791,4.7938,4.8091,4.82,4.822,4.826,4.8237,4.8282,4.8333,4.8337,4.8549,4.8508,4.8535,4.8589,4.8799,4.8806,4.8813,4.8823,4.8834,4.8844,0,0,0,0,0,0,4.7815,4.7918,4.7924,4.8042,4.8113,4.8203,4.826,4.827,4.8348,4.8345,4.839,4.8412,4.8521,4.8566,4.8517,4.8704,4.8672,4.8685,4.8671,4.8682,4.869,4.8678,4.8508,0,0,0,0,0,4.7828,4.7908,4.7993,4.8089,4.8124,4.8186,4.8235,4.826,4.8334,4.8364,4.8423,4.8496,4.8579,4.8632,4.8713,4.8833,4.8855,4.8884,4.8892,4.8899,4.891,4.8979,4.8993,4.8839,4.8839,4.8839,0,0,4.7855,4.7921,4.7969,4.809,4.8148,4.823,4.8211,4.8298,4.8361,4.8377,4.8487,4.8533,4.8616,4.8733,4.8787,4.8773,4.8957,4.8908,4.8912,4.892,4.8987,4.9002,4.9015,4.8844,4.8843,4.8842,0,0,4.7948,4.8005,4.8093,4.8151,4.8238,4.8278,4.8299,4.8389,4.8421,4.8531,4.8546,4.862,4.8761,4.8821,4.887,4.8986,4.8994,4.901,4.9056,4.9122,4.9134,4.9145,4.9189,4.9204,4.9021,4.9021,4.9021,0,4.7971,4.8096,4.8136,4.8224,4.8278,4.8297,4.8386,4.844,4.8549,4.8586,4.8569,4.8748,4.8806,4.8938,4.8966,4.9004,4.903,4.9001,4.9129,4.9141,4.9152,4.9194,4.921,4.9023,4.9022,4.9022,4.9022,0,4.8121,4.8208,4.8268,4.8373,4.8433,4.8521,4.8575,4.8631,4.8651,4.8693,4.8806,4.8876,4.8972,4.9004,4.9024,4.914,4.9129,4.912,4.9089,4.9167,4.9208,4.9224,4.9025,4.9024,4.9024,4.9023,0,0,4.8217,4.8344,4.8366,4.8415,4.8512,4.858,4.8669,4.8763,4.8811,4.8886,4.8963,4.9082,4.9075,4.9131,4.9157,4.9215,4.9305,4.92,4.9202,4.9218,4.9439,4.9447,4.9464,4.931,4.9313,4.9316,4.9433,0,4.8323,4.8483,4.8522,4.8659,4.874,4.8759,4.8837,4.8906,4.8948,4.9023,4.9069,4.9155,4.9138,4.9172,4.923,4.9282,4.935,4.9273,4.9383,4.9387,4.9364,4.9485,4.9493,4.9601,4.9449,4.9451,4.9453,0,4.8467,4.8546,4.8691,4.878,4.8815,4.8884,4.8975,4.9046,4.9124,4.9151,4.9213,4.9234,4.9329,4.9292,4.9423,4.937,4.9417,4.945,4.9455,4.9468,4.9426,4.9504,4.9636,4.9652,4.9478,4.9476,4.9474,0,4.8526,4.8667,4.8773,4.8814,4.8919,4.8968,4.9014,4.9089,4.9144,4.9223,4.9259,4.9347,4.9396,4.9464,4.9509,4.9477,4.9637,4.9604,4.9663,4.9663,4.9698,4.9695,4.9841,4.9724,4.9724,4.9724,4.9724,0,4.8641,4.8729,4.8801,4.8866,4.8966,4.901,4.9108,4.9154,4.9222,4.9297,4.9318,4.9388,4.9442,4.9519,4.9554,4.9659,4.968,4.9705,4.9714,4.9705,4.9702,4.9738,4.9732,4.9728,4.9727,4.9726,4.9726,0,4.8723,4.8775,4.8892,4.8982,4.9006,4.9076,4.9154,4.9218,4.9261,4.9356,4.938,4.9447,4.954,4.959,4.9706,4.973,4.9848,4.9851,4.9822,4.9826,4.9884,4.9878,5.0059,5.0086,4.9949,4.995,4.9951,0,4.8795,4.8864,4.8961,4.9013,4.906,4.9143,4.92,4.9245,4.9303,4.9398,4.9451,4.9545,4.9623,4.977,4.9829,4.9918,4.9925,4.9982,4.9939,4.9928,4.9929,4.9925,4.9933,4.9991,4.9992,4.9993,4.9994,0,4.8916,4.8939,4.9018,4.9108,4.9175,4.9247,4.9319,4.936,4.9417,4.9481,4.9576,4.9637,4.9755,4.9849,4.9943,4.999,5.0003,5.0007,5.0026,5.0018,4.9999,5.0013,4.9845,5.0003,5.0002,5.0001,5.0001,5.0,4.8998,4.906,4.9139,4.9228,4.9287,4.9354,4.9419,4.947,4.955,4.9651,4.9672,4.9773,4.9851,4.9978,5.0029,5.0109,5.0098,5.0125,5.0132,5.0139,5.0142,4.9984,5.0126,5.0125,5.0125,5.0125,5.0125,0,4.9122,4.9174,4.9255,4.9356,4.9426,4.943,4.951,4.9569,4.9657,4.9728,4.9805,4.9915,5.0005,5.0072,5.0165,5.0216,5.0224,5.0239,5.0237,5.0248,5.0145,5.0121,5.0231,5.0231,5.0231,5.0231,5.0231,5.0231,4.9196,4.9303,4.9335,4.9471,4.9522,4.9622,4.9667,4.9729,4.9787,4.9909,4.9984,5.0027,5.0097,5.0195,5.0279,5.0296,5.0331,5.0346,5.0364,5.0267,5.0255,5.0245,5.0222,5.0352,5.0352,5.0461,5.0461,5.0462]}]]